Time,TemperatureF,DewpointF,PressureIn,WindDirection,WindDirectionDegrees,WindSpeedMPH,WindSpeedGustMPH,Humidity,HourlyPrecipIn,Conditions,Clouds,dailyrainin,SoftwareType,DateUTC
2013-03-04 00:01:00,63.0,-99.9,30.13,WNW,303,19.0,23.0,-999,-99.99,,,-99.99,,2013-03-04 05:01:00,
2013-03-04 00:11:00,63.0,-99.9,30.13,NW,310,19.0,22.0,-999,-99.99,,,-99.99,,2013-03-04 05:11:00,
2013-03-04 00:22:00,63.0,-99.9,30.13,NW,313,19.0,22.0,-999,-99.99,,,-99.99,,2013-03-04 05:22:00,
2013-03-04 00:32:00,63.0,-99.9,30.13,NW,316,18.0,25.0,-999,-99.99,,,-99.99,,2013-03-04 05:32:00,
2013-03-04 00:43:00,63.0,-99.9,30.13,NW,312,17.0,23.0,-999,-99.99,,,-99.99,,2013-03-04 05:43:00,
2013-03-04 00:52:00,63.0,-99.9,30.13,NW,312,17.0,23.0,-999,-99.99,,,-99.99,,2013-03-04 05:52:00,
2013-03-04 01:02:00,63.0,-99.9,30.13,NW,310,18.0,22.0,-999,-99.99,,,-99.99,,2013-03-04 06:02:00,
2013-03-04 01:11:00,63.0,-99.9,30.12,NW,318,20.0,23.0,-999,-99.99,,,-99.99,,2013-03-04 06:11:00,
2013-03-04 01:22:00,63.0,-99.9,30.12,NW,323,18.0,23.0,-999,-99.99,,,-99.99,,2013-03-04 06:22:00,
2013-03-04 01:32:00,62.0,-99.9,30.12,NW,323,18.0,25.0,-999,-99.99,,,-99.99,,2013-03-04 06:32:00,
2013-03-04 01:42:00,62.0,-99.9,30.12,NW,323,19.0,24.0,-999,-99.99,,,-99.99,,2013-03-04 06:42:00,
2013-03-04 01:52:00,62.0,-99.9,30.12,NW,318,18.0,21.0,-999,-99.99,,,-99.99,,2013-03-04 06:52:00,
2013-03-04 02:02:00,62.0,-99.9,30.12,NW,323,15.0,19.0,-999,-99.99,,,-99.99,,2013-03-04 07:02:00,
2013-03-04 02:11:00,62.0,-99.9,30.11,NW,321,17.0,22.0,-999,-99.99,,,-99.99,,2013-03-04 07:11:00,
2013-03-04 02:22:00,62.0,-99.9,30.11,NW,322,16.0,21.0,-999,-99.99,,,-99.99,,2013-03-04 07:22:00,
2013-03-04 02:32:00,62.0,-99.9,30.11,NW,311,14.0,19.0,-999,-99.99,,,-99.99,,2013-03-04 07:32:00,
2013-03-04 02:42:00,61.0,-99.9,30.11,NW,314,17.0,19.0,-999,-99.99,,,-99.99,,2013-03-04 07:42:00,
2013-03-04 02:52:00,61.0,-99.9,30.11,NNW,331,10.0,19.0,-999,-99.99,,,-99.99,,2013-03-04 07:52:00,
2013-03-04 03:02:00,60.0,-99.9,30.11,NNE,22,11.0,15.0,-999,-99.99,,,-99.99,,2013-03-04 08:02:00,
2013-03-04 03:12:00,59.0,-99.9,30.11,NNE,21,11.0,16.0,-999,-99.99,,,-99.99,,2013-03-04 08:12:00,
2013-03-04 03:22:00,59.0,-99.9,30.11,NNE,13,7.0,16.0,-999,-99.99,,,-99.99,,2013-03-04 08:22:00,
2013-03-04 03:32:00,59.0,-99.9,30.11,NNE,24,11.0,14.0,-999,-99.99,,,-99.99,,2013-03-04 08:32:00,
2013-03-04 03:42:00,58.0,-99.9,30.11,NNE,16,10.0,16.0,-999,-99.99,,,-99.99,,2013-03-04 08:42:00,
2013-03-04 03:52:00,58.0,-99.9,30.11,NNE,20,10.0,15.0,-999,-99.99,,,-99.99,,2013-03-04 08:52:00,
2013-03-04 04:02:00,58.0,-99.9,30.11,NNE,21,10.0,16.0,-999,-99.99,,,-99.99,,2013-03-04 09:02:00,
2013-03-04 04:11:00,58.0,-99.9,30.12,NNE,22,11.0,15.0,-999,-99.99,,,-99.99,,2013-03-04 09:11:00,
2013-03-04 04:22:00,58.0,-99.9,30.12,NNE,19,10.0,15.0,-999,-99.99,,,-99.99,,2013-03-04 09:22:00,
2013-03-04 04:32:00,57.0,-99.9,30.12,NNE,19,11.0,15.0,-999,-99.99,,,-99.99,,2013-03-04 09:32:00,
2013-03-04 04:42:00,57.0,-99.9,30.12,North,8,8.0,12.0,-999,-99.99,,,-99.99,,2013-03-04 09:42:00,
2013-03-04 04:52:00,56.0,-99.9,30.12,North,5,7.0,15.0,-999,-99.99,,,-99.99,,2013-03-04 09:52:00,
2013-03-04 05:01:00,56.0,-99.9,30.13,NNE,15,9.0,14.0,-999,-99.99,,,-99.99,,2013-03-04 10:01:00,
2013-03-04 05:12:00,56.0,-99.9,30.13,NNE,18,12.0,17.0,-999,-99.99,,,-99.99,,2013-03-04 10:12:00,
2013-03-04 05:22:00,56.0,-99.9,30.14,NNE,25,12.0,16.0,-999,-99.99,,,-99.99,,2013-03-04 10:22:00,
2013-03-04 05:32:00,56.0,-99.9,30.14,NNE,15,9.0,17.0,-999,-99.99,,,-99.99,,2013-03-04 10:32:00,
2013-03-04 05:42:00,55.0,-99.9,30.14,NNE,19,11.0,16.0,-999,-99.99,,,-99.99,,2013-03-04 10:42:00,
2013-03-04 05:52:00,56.0,-99.9,30.14,NNE,14,11.0,18.0,-999,-99.99,,,-99.99,,2013-03-04 10:52:00,
2013-03-04 06:02:00,56.0,-99.9,30.15,NNE,21,12.0,16.0,-999,-99.99,,,-99.99,,2013-03-04 11:02:00,
2013-03-04 06:11:00,56.0,-99.9,30.15,NNE,16,11.0,18.0,-999,-99.99,,,-99.99,,2013-03-04 11:11:00,
2013-03-04 06:22:00,56.0,-99.9,30.15,North,11,9.0,17.0,-999,-99.99,,,-99.99,,2013-03-04 11:22:00,
2013-03-04 06:32:00,55.0,-99.9,30.15,NNE,16,11.0,20.0,-999,-99.99,,,-99.99,,2013-03-04 11:32:00,
2013-03-04 06:42:00,55.0,-99.9,30.15,NNE,18,11.0,20.0,-999,-99.99,,,-99.99,,2013-03-04 11:42:00,
2013-03-04 06:52:00,55.0,-99.9,30.16,NNE,20,12.0,18.0,-999,-99.99,,,-99.99,,2013-03-04 11:52:00,
2013-03-04 07:02:00,55.0,-99.9,30.16,NNE,25,14.0,18.0,-999,-99.99,,,-99.99,,2013-03-04 12:02:00,
2013-03-04 07:12:00,54.0,-99.9,30.16,NNE,31,16.0,19.0,-999,-99.99,,,-99.99,,2013-03-04 12:12:00,
2013-03-04 07:22:00,55.0,-99.9,30.17,NNE,28,16.0,21.0,-999,-99.99,,,-99.99,,2013-03-04 12:22:00,
2013-03-04 07:32:00,55.0,-99.9,30.17,NNE,29,15.0,18.0,-999,-99.99,,,-99.99,,2013-03-04 12:32:00,
2013-03-04 07:43:00,55.0,-99.9,30.17,NE,40,14.0,19.0,-999,-99.99,,,-99.99,,2013-03-04 12:43:00,
2013-03-04 07:53:00,55.0,-99.9,30.18,NNE,31,15.0,17.0,-999,-99.99,,,-99.99,,2013-03-04 12:53:00,
2013-03-04 08:02:00,55.0,-99.9,30.18,NE,37,13.0,18.0,-999,-99.99,,,-99.99,,2013-03-04 13:02:00,
2013-03-04 08:11:00,54.0,-99.9,30.19,NE,38,14.0,16.0,-999,-99.99,,,-99.99,,2013-03-04 13:11:00,
2013-03-04 08:22:00,55.0,-99.9,30.19,NE,41,15.0,17.0,-999,-99.99,,,-99.99,,2013-03-04 13:22:00,
2013-03-04 08:32:00,55.0,-99.9,30.19,NE,35,13.0,17.0,-999,-99.99,,,-99.99,,2013-03-04 13:32:00,
2013-03-04 08:42:00,55.0,-99.9,30.20,NE,40,13.0,17.0,-999,-99.99,,,-99.99,,2013-03-04 13:42:00,
2013-03-04 08:52:00,55.0,-99.9,30.20,NE,44,13.0,16.0,-999,-99.99,,,-99.99,,2013-03-04 13:52:00,
2013-03-04 09:01:00,54.0,-99.9,30.21,NE,45,14.0,16.0,-999,-99.99,,,-99.99,,2013-03-04 14:01:00,
2013-03-04 09:12:00,54.0,-99.9,30.21,NE,47,13.0,17.0,-999,-99.99,,,-99.99,,2013-03-04 14:12:00,
2013-03-04 09:22:00,54.0,-99.9,30.21,NE,41,13.0,17.0,-999,-99.99,,,-99.99,,2013-03-04 14:22:00,
2013-03-04 09:32:00,54.0,-99.9,30.22,NE,47,13.0,16.0,-999,-99.99,,,-99.99,,2013-03-04 14:32:00,
2013-03-04 09:42:00,54.0,-99.9,30.22,NE,42,12.0,15.0,-999,-99.99,,,-99.99,,2013-03-04 14:42:00,
2013-03-04 09:52:00,55.0,-99.9,30.22,NE,47,13.0,17.0,-999,-99.99,,,-99.99,,2013-03-04 14:52:00,
2013-03-04 10:02:00,54.0,-99.9,30.22,NE,44,11.0,16.0,-999,-99.99,,,-99.99,,2013-03-04 15:02:00,
2013-03-04 10:11:00,54.0,-99.9,30.22,NE,50,12.0,16.0,-999,-99.99,,,-99.99,,2013-03-04 15:11:00,
2013-03-04 10:22:00,54.0,-99.9,30.23,NE,38,12.0,15.0,-999,-99.99,,,-99.99,,2013-03-04 15:22:00,
2013-03-04 10:32:00,54.0,-99.9,30.22,NE,46,10.0,15.0,-999,-99.99,,,-99.99,,2013-03-04 15:32:00,
2013-03-04 10:42:00,54.0,-99.9,30.22,NE,42,9.0,14.0,-999,-99.99,,,-99.99,,2013-03-04 15:42:00,
2013-03-04 10:52:00,54.0,-99.9,30.22,NE,48,10.0,13.0,-999,-99.99,,,-99.99,,2013-03-04 15:52:00,
2013-03-04 11:03:00,54.0,-99.9,30.22,NE,49,10.0,13.0,-999,-99.99,,,-99.99,,2013-03-04 16:03:00,
2013-03-04 11:11:00,54.0,-99.9,30.22,NE,42,10.0,13.0,-999,-99.99,,,-99.99,,2013-03-04 16:11:00,
2013-03-04 11:22:00,55.0,-99.9,30.22,NNE,30,10.0,13.0,-999,-99.99,,,-99.99,,2013-03-04 16:22:00,
2013-03-04 11:32:00,55.0,-99.9,30.22,NNE,30,11.0,14.0,-999,-99.99,,,-99.99,,2013-03-04 16:32:00,
2013-03-04 11:42:00,55.0,-99.9,-100.00,NNE,22,8.0,12.0,-999,-99.99,,,-99.99,,2013-03-04 16:42:00,
2013-03-04 11:52:00,54.0,-99.9,30.21,NNE,31,9.0,12.0,-999,-99.99,,,-99.99,,2013-03-04 16:52:00,
2013-03-04 12:02:00,54.0,-99.9,30.21,NNE,26,8.0,12.0,-999,-99.99,,,-99.99,,2013-03-04 17:02:00,
2013-03-04 12:11:00,55.0,-99.9,30.21,NNE,31,8.0,12.0,-999,-99.99,,,-99.99,,2013-03-04 17:11:00,
2013-03-04 12:22:00,55.0,-99.9,30.20,NNE,24,6.0,10.0,-999,-99.99,,,-99.99,,2013-03-04 17:22:00,
2013-03-04 12:32:00,55.0,-99.9,30.19,NE,36,7.0,11.0,-999,-99.99,,,-99.99,,2013-03-04 17:32:00,
2013-03-04 12:42:00,56.0,-99.9,30.19,NNE,22,7.0,11.0,-999,-99.99,,,-99.99,,2013-03-04 17:42:00,
2013-03-04 12:52:00,56.0,-99.9,30.19,NNE,22,6.0,10.0,-999,-99.99,,,-99.99,,2013-03-04 17:52:00,
2013-03-04 13:02:00,57.0,-99.9,30.18,NNE,19,7.0,11.0,-999,-99.99,,,-99.99,,2013-03-04 18:02:00,
2013-03-04 13:11:00,57.0,-99.9,30.17,NNE,20,7.0,10.0,-999,-99.99,,,-99.99,,2013-03-04 18:11:00,
2013-03-04 13:22:00,57.0,-99.9,30.17,NNE,24,7.0,9.0,-999,-99.99,,,-99.99,,2013-03-04 18:22:00,
2013-03-04 13:33:00,57.0,-99.9,30.16,NNE,14,6.0,9.0,-999,-99.99,,,-99.99,,2013-03-04 18:33:00,
2013-03-04 13:43:00,57.0,-99.9,30.16,NNE,20,7.0,11.0,-999,-99.99,,,-99.99,,2013-03-04 18:43:00,
2013-03-04 13:52:00,58.0,-99.9,30.15,North,9,6.0,9.0,-999,-99.99,,,-99.99,,2013-03-04 18:52:00,
2013-03-04 14:02:00,58.0,-99.9,30.15,NNE,21,6.0,10.0,-999,-99.99,,,-99.99,,2013-03-04 19:02:00,
2013-03-04 14:12:00,59.0,-99.9,30.14,North,7,5.0,9.0,-999,-99.99,,,-99.99,,2013-03-04 19:12:00,
2013-03-04 14:22:00,59.0,-99.9,30.15,NNE,16,4.0,11.0,-999,-99.99,,,-99.99,,2013-03-04 19:22:00,
2013-03-04 14:32:00,61.0,-99.9,30.14,NNW,336,5.0,8.0,-999,-99.99,,,-99.99,,2013-03-04 19:32:00,
2013-03-04 14:42:00,62.0,-99.9,30.14,NW,323,6.0,10.0,-999,-99.99,,,-99.99,,2013-03-04 19:42:00,
2013-03-04 14:52:00,62.0,-99.9,30.14,NNW,330,5.0,10.0,-999,-99.99,,,-99.99,,2013-03-04 19:52:00,
2013-03-04 15:02:00,62.0,-99.9,30.13,NNW,332,4.0,7.0,-999,-99.99,,,-99.99,,2013-03-04 20:02:00,
2013-03-04 15:12:00,62.0,-99.9,30.14,NW,315,8.0,10.0,-999,-99.99,,,-99.99,,2013-03-04 20:12:00,
2013-03-04 15:22:00,61.0,-99.9,30.13,NNW,333,4.0,7.0,-999,-99.99,,,-99.99,,2013-03-04 20:22:00,
2013-03-04 15:33:00,62.0,-99.9,30.13,NW,320,6.0,8.0,-999,-99.99,,,-99.99,,2013-03-04 20:33:00,
2013-03-04 15:42:00,62.0,-99.9,30.13,NW,326,6.0,9.0,-999,-99.99,,,-99.99,,2013-03-04 20:42:00,
2013-03-04 15:53:00,62.0,-99.9,30.13,NW,311,2.0,9.0,-999,-99.99,,,-99.99,,2013-03-04 20:53:00,
2013-03-04 16:02:00,62.0,-99.9,30.13,WNW,290,6.0,8.0,-999,-99.99,,,-99.99,,2013-03-04 21:02:00,
2013-03-04 16:12:00,62.0,-99.9,30.13,NW,308,5.0,7.0,-999,-99.99,,,-99.99,,2013-03-04 21:12:00,
2013-03-04 16:22:00,62.0,-99.9,30.13,NW,308,3.0,5.0,-999,-99.99,,,-99.99,,2013-03-04 21:22:00,
2013-03-04 16:32:00,62.0,-99.9,30.13,NW,309,2.0,6.0,-999,-99.99,,,-99.99,,2013-03-04 21:32:00,
2013-03-04 16:43:00,62.0,-99.9,30.14,WNW,292,2.0,7.0,-999,-99.99,,,-99.99,,2013-03-04 21:43:00,
2013-03-04 16:53:00,60.0,-99.9,30.13,NNE,32,3.0,5.0,-999,-99.99,,,-99.99,,2013-03-04 21:53:00,
2013-03-04 17:02:00,62.0,-99.9,30.14,WNW,292,4.0,6.0,-999,-99.99,,,-99.99,,2013-03-04 22:02:00,
2013-03-04 17:12:00,63.0,-99.9,30.13,NW,314,4.0,6.0,-999,-99.99,,,-99.99,,2013-03-04 22:12:00,
2013-03-04 17:22:00,62.0,-99.9,30.13,NNW,335,3.0,6.0,-999,-99.99,,,-99.99,,2013-03-04 22:22:00,
2013-03-04 17:32:00,62.0,-99.9,30.13,NW,323,3.0,6.0,-999,-99.99,,,-99.99,,2013-03-04 22:32:00,
2013-03-04 17:43:00,62.0,-99.9,30.13,NW,315,4.0,5.0,-999,-99.99,,,-99.99,,2013-03-04 22:43:00,
2013-03-04 17:52:00,62.0,-99.9,30.14,NW,305,3.0,6.0,-999,-99.99,,,-99.99,,2013-03-04 22:52:00,
2013-03-04 18:02:00,62.0,-99.9,30.14,NW,322,2.0,4.0,-999,-99.99,,,-99.99,,2013-03-04 23:02:00,
2013-03-04 18:12:00,61.0,-99.9,30.14,NNE,15,1.0,4.0,-999,-99.99,,,-99.99,,2013-03-04 23:12:00,
2013-03-04 18:22:00,60.0,-99.9,30.14,North,4,0.0,3.0,-999,-99.99,,,-99.99,,2013-03-04 23:22:00,
2013-03-04 18:32:00,60.0,-99.9,30.14,NNE,31,1.0,2.0,-999,-99.99,,,-99.99,,2013-03-04 23:32:00,
2013-03-04 18:42:00,59.0,-99.9,30.14,North,1,2.0,3.0,-999,-99.99,,,-99.99,,2013-03-04 23:42:00,
2013-03-04 18:53:00,59.0,-99.9,30.14,NNW,343,1.0,3.0,-999,-99.99,,,-99.99,,2013-03-04 23:53:00,
2013-03-04 19:02:00,59.0,-99.9,30.14,North,356,2.0,2.0,-999,-99.99,,,-99.99,,2013-03-05 00:02:00,
2013-03-04 19:12:00,59.0,-99.9,30.15,NW,304,0.0,1.0,-999,-99.99,,,-99.99,,2013-03-05 00:12:00,
2013-03-04 19:22:00,58.0,-99.9,30.15,SSW,213,1.0,1.0,-999,-99.99,,,-99.99,,2013-03-05 00:22:00,
2013-03-04 19:33:00,58.0,-99.9,30.15,SSW,208,0.0,2.0,-999,-99.99,,,-99.99,,2013-03-05 00:33:00,
2013-03-04 19:42:00,58.0,-99.9,30.15,WNW,296,1.0,2.0,-999,-99.99,,,-99.99,,2013-03-05 00:42:00,
2013-03-04 19:52:00,58.0,-99.9,30.15,NNW,338,2.0,3.0,-999,-99.99,,,-99.99,,2013-03-05 00:52:00,
2013-03-04 20:02:00,58.0,-99.9,30.16,NNW,345,2.0,3.0,-999,-99.99,,,-99.99,,2013-03-05 01:02:00,
2013-03-04 20:12:00,58.0,-99.9,30.16,NW,309,0.0,2.0,-999,-99.99,,,-99.99,,2013-03-05 01:12:00,
2013-03-04 20:22:00,58.0,-99.9,30.16,WNW,300,0.0,1.0,-999,-99.99,,,-99.99,,2013-03-05 01:22:00,
2013-03-04 20:33:00,58.0,-99.9,30.16,North,351,1.0,2.0,-999,-99.99,,,-99.99,,2013-03-05 01:33:00,
2013-03-04 20:42:00,58.0,-99.9,30.16,ENE,63,0.0,0.0,-999,-99.99,,,-99.99,,2013-03-05 01:42:00,
2013-03-04 20:52:00,57.0,-99.9,30.17,NNE,15,0.0,0.0,-999,-99.99,,,-99.99,,2013-03-05 01:52:00,
2013-03-04 21:02:00,58.0,-99.9,30.17,SE,138,0.0,0.0,-999,-99.99,,,-99.99,,2013-03-05 02:02:00,
2013-03-04 21:12:00,58.0,-99.9,30.18,SSE,163,1.0,1.0,-999,-99.99,,,-99.99,,2013-03-05 02:12:00,
2013-03-04 21:22:00,58.0,-99.9,30.18,SSW,196,0.0,0.0,-999,-99.99,,,-99.99,,2013-03-05 02:22:00,
2013-03-04 21:33:00,58.0,-99.9,30.18,North,5,1.0,2.0,-999,-99.99,,,-99.99,,2013-03-05 02:33:00,
2013-03-04 21:42:00,58.0,-99.9,30.18,North,357,1.0,2.0,-999,-99.99,,,-99.99,,2013-03-05 02:42:00,
2013-03-04 21:53:00,58.0,-99.9,30.18,North,2,1.0,3.0,-999,-99.99,,,-99.99,,2013-03-05 02:53:00,
2013-03-04 22:02:00,58.0,-99.9,30.19,North,3,2.0,2.0,-999,-99.99,,,-99.99,,2013-03-05 03:02:00,
2013-03-04 22:12:00,59.0,-99.9,30.19,North,358,1.0,2.0,-999,-99.99,,,-99.99,,2013-03-05 03:12:00,
2013-03-04 22:22:00,59.0,-99.9,30.18,NNW,344,2.0,3.0,-999,-99.99,,,-99.99,,2013-03-05 03:22:00,
2013-03-04 22:32:00,59.0,-99.9,30.18,North,356,0.0,2.0,-999,-99.99,,,-99.99,,2013-03-05 03:32:00,
2013-03-04 22:42:00,59.0,-99.9,30.18,North,353,1.0,2.0,-999,-99.99,,,-99.99,,2013-03-05 03:42:00,
2013-03-04 22:52:00,58.0,-99.9,30.18,NNE,12,2.0,2.0,-999,-99.99,,,-99.99,,2013-03-05 03:52:00,
2013-03-04 23:02:00,59.0,-99.9,30.18,North,357,1.0,3.0,-999,-99.99,,,-99.99,,2013-03-05 04:02:00,
2013-03-04 23:12:00,61.0,-99.9,30.17,NNE,26,2.0,4.0,-999,-99.99,,,-99.99,,2013-03-05 04:12:00,
2013-03-04 23:22:00,61.0,-99.9,30.17,NNE,27,2.0,5.0,-999,-99.99,,,-99.99,,2013-03-05 04:22:00,
2013-03-04 23:32:00,60.0,-99.9,30.16,North,5,2.0,3.0,-999,-99.99,,,-99.99,,2013-03-05 04:32:00,
2013-03-04 23:42:00,60.0,-99.9,30.16,NNE,33,1.0,2.0,-999,-99.99,,,-99.99,,2013-03-05 04:42:00,
2013-03-04 23:52:00,59.0,-99.9,30.16,North,2,1.0,2.0,-999,-99.99,,,-99.99,,2013-03-05 04:52:00,